This is the latest recevied weather packets stored in our database for station/object K7SKM. If no packets are shown the sender has not sent any weather packets the latest 10 day(s).
| Time | Temp. | Humidity | Pressure | Rain* | Wind** | Luminosity | Snow |
|---|---|---|---|---|---|---|---|
| 1787583474 | 13.33° C | 86% | 1023.3 hPa | 0 mm | - | 37 W/m² | - |
| 1787583172 | 12.78° C | 86% | 1023.3 hPa | 0 mm | - | 39 W/m² | - |
| 1787582868 | 12.78° C | 86% | 1023.3 hPa | 0 mm | - | 31 W/m² | - |
| 1787582563 | 12.78° C | 86% | 1023.2 hPa | 0 mm | - | 30 W/m² | - |
| 1787582258 | 12.78° C | 86% | 1023.4 hPa | 0 mm | - | 26 W/m² | - |
| 1787581957 | 12.78° C | 87% | 1023.1 hPa | 0 mm | - | 25 W/m² | - |
| 1787581652 | 12.22° C | 87% | 1023.1 hPa | 0 mm | - | 24 W/m² | - |
| 1787581348 | 12.22° C | 88% | 1023.1 hPa | 0 mm | - | 22 W/m² | - |
| 1787581042 | 12.22° C | 88% | 1023 hPa | 0 mm | - | 20 W/m² | - |
| 1787580738 | 12.22° C | 88% | 1022.9 hPa | 0 mm | - | 18 W/m² | - |
| 1787580434 | 12.22° C | 89% | 1022.9 hPa | 0 mm | - | 14 W/m² | - |
| 1787580129 | 11.67° C | 89% | 1023.1 hPa | 0 mm | - | 13 W/m² | - |
| 1787579829 | 11.67° C | 89% | 1022.8 hPa | 0 mm | - | 11 W/m² | - |
| 1787579523 | 11.67° C | 89% | 1022.7 hPa | 0 mm | - | 8 W/m² | - |
| 1787579219 | 11.67° C | 89% | 1022.7 hPa | 0 mm | - | 6 W/m² | - |
| 1787578914 | 11.67° C | 89% | 1022.7 hPa | 0 mm | - | 5 W/m² | - |
| 1787578610 | 11.67° C | 89% | 1022.6 hPa | 0 mm | - | 4 W/m² | - |
| 1787578309 | 11.67° C | 89% | 1022.7 hPa | 0 mm | - | 1 W/m² | - |
| 1787578004 | 11.67° C | 89% | 1022.7 hPa | 0 mm | - | 0 W/m² | - |
| 1787577699 | 11.67° C | 90% | 1022.9 hPa | 0 mm | - | 0 W/m² | - |
| 1787577395 | 11.67° C | 90% | 1022.8 hPa | 0 mm | - | 0 W/m² | - |
| 1787577091 | 11.67° C | 89% | 1022.8 hPa | 0 mm | - | 0 W/m² | - |
| 1787576787 | 11.67° C | 90% | 1022.8 hPa | 0 mm | - | 0 W/m² | - |
| 1787576482 | 11.67° C | 90% | 1022.8 hPa | 0 mm | - | 0 W/m² | - |
| 1787576179 | 11.67° C | 89% | 1022.9 hPa | 0 mm | - | 0 W/m² | - |
* Rain latest hour (hover to see other rain measurements)
** Current wind speed in m/s (hover to see current wind gust speed)